星链-11204 (STARLINK-11204)

导读

STARLINK-11204是美国太空探索技术公司(SpaceX)星链互联网星座的卫星,于2024年8月31日发射升空。作为星链低轨星座组网卫星,它旨在为全球提供高速低延迟宽带互联网服务,尤其覆盖偏远与基础设施薄弱区域,进一步扩充星链星座规模,推进全球卫星互联网组网布局。

基本信息
目录编号:
60931
目录名称:
STARLINK-11204
国际标识:
2024-155H
轨道中心:
EARTH
卫星名称:
星链-11204
卫星全名:
星链-11204 (STARLINK-11204)
卫星状态:
在轨 (已飞行741 天)
发射日期:
2024-08-31 UTC
国别 :
美国 (US)
星等 :
--
该卫星已列入 空间交会检测服务 Space Conjunction Data Service (SCDS) ,当前飞行风险评估等级: 无高风险
轨道信息
数据来源 国际轨道数据
星历时间: 2026-09-10T06:39:01+0800
1天前
查看轨道信息
半长轴: 6737.87km
偏心率: 0.0000883
轨道倾角: 53.158°
近地点辐角 117.198°
升交点赤经 152.795°
平近点角 242.912°
近地点: 359.138km
远地点: 360.328km
周期: 91.737分钟
每日圈数: 15.69708
详细信息
固有亮度:
5
最大亮度:
2.5
卫星平台:
Starlink V1.0
覆盖范围:
全球
运营商:
太空探索技术公司
运营商所在国:
美国
制造商(研发单位):
太空探索技术公司
制造商所在国:
美国
使用方式:
暂无
卫星简介
Starlink 计划是 SpaceX 推出的全球卫星互联网项目,通过发射低轨道卫星,为全球尤其是偏远地区提供高速、低延迟的互联网服务。自 2019 年起,Starlink 已部署数千颗卫星,旨在缩小全球数字鸿沟,推动互联网普及。该项目还为军事、航空等行业提供通信支持,带来广泛经济效益。
2D轨道图
3D轨道图
轨道高度分析图
轨道倾角分析图
轨道综合分析图
查看轨道综合分析图
交会数据列表
事件ID 空间交会对象 最接近时刻(TCA) 交会距离 交会风险概率(CRP) 交会风险指数(CRI) 操作
CDM_260912-005604-931906-093123
OBJECT E (49319)
2026-09-12T
00:56:57+0000
2.106 km
极远距离
1.499955E-6 低风险 0.39
与全量物体交会距离演化趋势
与全量物体交会风险概率演化趋势